Weather History for KIYA - December, 2012

Change the Weather History Date:

Friday, December 21, 2012

  Actual Average (KARA) Record (KARA)
Temperature  
Mean Temperature 47 °F 54 °F  
Max Temperature 61 °F 64 °F 80 °F (1998)
Min Temperature 33 °F 43 °F 27 °F (2000)
Degree Days  
Heating Degree Days 18 12  
Month to date heating degree days 227  
Since 1 July heating degree days 422  
Cooling Degree Days 0 0  
Month to date cooling degree days 19  
Year to date cooling degree days 2811  
Moisture  
Dew Point 29 °F    
Average Humidity 60    
Maximum Humidity 100    
Minimum Humidity 22    
Precipitation  
Precipitation 0.00 in 0.15 in 2.60 in (2006)
Month to date precipitation 3.66  
Year to date precipitation 58.35  
Sea Level Pressure  
Sea Level Pressure 30.41 in    
Wind  
Wind Speed 7 mph (NW)    
Max Wind Speed 15 mph    
Max Gust Speed 23 mph    
Visibility 10 miles    
Events      
T = Trace of Precipitation, MM = Missing Value Source: NWS Daily Summary

Daily Weather History Graph

Daily Weather History Graph

Search for Another Location

Airport or City:

Trip Planner

Search our weather history database for the weather conditions in past years. The results will help you decide how hot, cold, wet, or windy it might be!

Date:

Astronomy

Dec. 21, 2012 Rise Set
Actual Time 7:00 AM CST 5:13 PM CST
Civil Twilight 6:33 AM CST 5:39 PM CST
Nautical Twilight 6:03 AM CST 6:09 PM CST
Astronomical Twilight 5:34 AM CST 6:38 PM CST
Moon 12:44 PM CST (12/21) 1:05 AM CST (12/21)
Length of Visible Light 11h 05m
Length of Day
10h 13m
Waxing Gibbous, 65% of the Moon is Illuminated
Dec 21
Waxing Gibbous
Dec 28
Full
Jan 4
Last Quarter
Jan 11
New
Jan 18
First Quarter

Hourly Weather History & Observations

Time (CST) Temp. Windchill Dew Point Humidity Pressure Visibility Wind Dir Wind Speed Gust Speed Precip Events Conditions
12:15 AM 38.5 °F - 31.5 °F 76% 30.38 in 10.0 mi North - - N/A   Clear
12:35 AM 38.3 °F 33.2 °F 31.5 °F 76% 30.38 in 10.0 mi West 6.9 mph - N/A   Clear
12:55 AM 37.6 °F - 31.1 °F 77% 30.38 in 10.0 mi North - - N/A   Clear
1:15 AM 37.4 °F 32.1 °F 31.1 °F 78% 30.38 in 10.0 mi WNW 6.9 mph - N/A   Clear
1:35 AM 37.4 °F - 30.7 °F 77% 30.38 in 10.0 mi North - - N/A   Clear
1:55 AM 36.7 °F - 30.7 °F 79% 30.38 in 10.0 mi North - - N/A   Clear
2:15 AM 36.5 °F 31.0 °F 30.7 °F 80% 30.38 in 10.0 mi West 6.9 mph - N/A   Clear
2:35 AM 36.0 °F - 30.6 °F 81% 30.39 in 10.0 mi North - - N/A   Clear
2:55 AM 36.3 °F - 30.7 °F 80% 30.39 in 10.0 mi North - - N/A   Clear
3:15 AM 36.0 °F 30.3 °F 30.0 °F 79% 30.39 in 10.0 mi WNW 6.9 mph - N/A   Clear
3:35 AM 35.6 °F 29.9 °F 29.8 °F 80% 30.40 in 10.0 mi WNW 6.9 mph - N/A   Clear
3:55 AM 36.0 °F 30.3 °F 29.7 °F 78% 30.40 in 10.0 mi West 6.9 mph - N/A   Clear
4:15 AM 36.1 °F 29.9 °F 29.7 °F 77% 30.40 in 10.0 mi West 8.1 mph - N/A   Clear
4:35 AM 34.7 °F 28.8 °F 29.3 °F 81% 30.40 in 10.0 mi WNW 6.9 mph - N/A   Clear
4:55 AM 34.5 °F 29.4 °F 28.9 °F 80% 30.40 in 10.0 mi WNW 5.8 mph - N/A   Clear
5:15 AM 34.5 °F 29.4 °F 28.4 °F 78% 30.40 in 10.0 mi WNW 5.8 mph - N/A   Clear
5:35 AM 34.3 °F 29.2 °F 28.4 °F 79% 30.41 in 10.0 mi WNW 5.8 mph - N/A   Clear
5:55 AM 33.8 °F 29.6 °F 27.5 °F 78% 30.42 in 10.0 mi WNW 4.6 mph - N/A   Clear
6:15 AM 33.8 °F 29.6 °F 27.3 °F 77% 30.43 in 10.0 mi WNW 4.6 mph - N/A   Clear
6:35 AM 33.4 °F 28.1 °F 26.6 °F 76% 30.44 in 10.0 mi WNW 5.8 mph - N/A   Clear
6:55 AM 33.8 °F 29.6 °F 26.6 °F 75% 30.44 in 10.0 mi NW 4.6 mph - N/A   Clear
7:15 AM 34.5 °F 29.4 °F 26.4 °F 72% 30.45 in 10.0 mi NW 5.8 mph - N/A   Clear
7:35 AM 36.0 °F 31.1 °F 28.0 °F 73% 30.46 in 10.0 mi WNW 5.8 mph - N/A   Clear
7:55 AM 38.8 °F - 28.6 °F 67% 30.47 in 10.0 mi North - - N/A   Clear
8:15 AM 40.8 °F 35.6 °F 29.1 °F 63% 30.48 in 10.0 mi NW 8.1 mph - N/A   Clear
8:35 AM 42.3 °F 36.8 °F 29.3 °F 60% 30.48 in 10.0 mi NNW 9.2 mph - N/A   Clear
8:55 AM 44.6 °F 40.2 °F 30.0 °F 57% 30.48 in 10.0 mi NNW 8.1 mph - N/A   Clear
9:15 AM 46.6 °F - 27.1 °F 47% 30.49 in 10.0 mi NNW 11.5 mph - N/A   Clear
9:35 AM 48.6 °F - 25.3 °F 40% 30.50 in 10.0 mi NNW 9.2 mph - N/A   Clear
9:55 AM 50.5 °F - 24.8 °F 37% 30.50 in 10.0 mi North 13.8 mph - N/A   Clear
10:15 AM 51.6 °F - 23.0 °F 33% 30.49 in 10.0 mi NNW 11.5 mph 23.0 mph N/A   Clear
10:35 AM 52.7 °F - 22.5 °F 31% 30.49 in 10.0 mi NNW 15.0 mph 21.9 mph N/A   Clear
10:55 AM 54.3 °F - 22.5 °F 29% 30.47 in 10.0 mi North 13.8 mph 19.6 mph N/A   Clear
11:15 AM 56.1 °F - 21.7 °F 26% 30.47 in 10.0 mi NNW 12.7 mph 18.4 mph N/A   Clear
11:35 AM 56.5 °F - 20.8 °F 25% 30.45 in 10.0 mi NNW 9.2 mph - N/A   Clear
11:55 AM 57.6 °F - 18.7 °F 22% 30.44 in 10.0 mi NNW 11.5 mph - N/A   Clear
12:15 PM 57.6 °F - 18.5 °F 22% 30.42 in 10.0 mi North 10.4 mph 18.4 mph N/A   Clear
12:35 PM 58.6 °F - 21.0 °F 23% 30.42 in 10.0 mi NNW 10.4 mph 16.1 mph N/A   Clear
12:55 PM 59.2 °F - 21.9 °F 24% 30.40 in 10.0 mi NNW 9.2 mph 17.3 mph N/A   Clear
1:15 PM 59.2 °F - 21.2 °F 23% 30.40 in 10.0 mi North 10.4 mph - N/A   Clear
1:35 PM 59.9 °F - 22.5 °F 24% 30.39 in 10.0 mi NNW 10.4 mph - N/A   Clear
1:55 PM 60.1 °F - 23.0 °F 24% 30.37 in 10.0 mi North 10.4 mph 17.3 mph N/A   Clear
2:15 PM 60.3 °F - 23.2 °F 24% 30.36 in 10.0 mi NNW 13.8 mph - N/A   Clear
2:35 PM 60.8 °F - 24.1 °F 25% 30.36 in 10.0 mi NW 11.5 mph - N/A   Clear
2:55 PM 61.2 °F - 26.1 °F 26% 30.36 in 10.0 mi NNW 9.2 mph - N/A   Clear
3:15 PM 60.8 °F - 24.6 °F 25% 30.36 in 10.0 mi North 6.9 mph - N/A   Clear
3:35 PM 60.1 °F - 24.8 °F 26% 30.36 in 10.0 mi NNW 9.2 mph - N/A   Clear
3:55 PM 59.9 °F - 25.2 °F 26% 30.36 in 10.0 mi NNW 6.9 mph - N/A   Clear
4:15 PM 59.0 °F - 25.9 °F 28% 30.36 in 10.0 mi NNW 4.6 mph - N/A   Clear
4:35 PM 56.7 °F - 28.0 °F 33% 30.37 in 10.0 mi NW 5.8 mph - N/A   Clear
4:55 PM 52.9 °F - 30.0 °F 42% 30.37 in 10.0 mi WNW 4.6 mph - N/A   Clear
5:15 PM 52.0 °F - 31.1 °F 45% 30.38 in 10.0 mi WNW 4.6 mph - N/A   Clear
5:35 PM 48.6 °F - 32.0 °F 53% 30.38 in 10.0 mi WNW 3.5 mph - N/A   Clear
5:55 PM 47.5 °F - 32.9 °F 57% 30.38 in 10.0 mi Calm Calm - N/A   Clear
6:15 PM 47.5 °F - 31.8 °F 55% 30.38 in 10.0 mi Calm Calm - N/A   Clear
6:35 PM 46.6 °F - 34.2 °F 62% 30.38 in 10.0 mi Calm Calm - N/A   Clear
6:55 PM 45.3 °F - 32.9 °F 62% 30.39 in 10.0 mi Calm Calm - N/A   Clear
7:15 PM 43.5 °F - 34.3 °F 70% 30.39 in 10.0 mi Calm Calm - N/A   Clear
7:35 PM 42.6 °F - 34.7 °F 74% 30.39 in 10.0 mi Calm Calm - N/A   Clear
7:55 PM 43.3 °F - 34.3 °F 71% 30.40 in 10.0 mi Calm Calm - N/A   Clear
8:15 PM 42.4 °F - 35.1 °F 75% 30.40 in 10.0 mi Calm Calm - N/A   Clear
8:35 PM 41.4 °F - 33.8 °F 74% 30.40 in 10.0 mi Calm Calm - N/A   Clear
8:55 PM 40.5 °F - 34.7 °F 80% 30.39 in 10.0 mi Calm Calm - N/A   Clear
9:15 PM 40.1 °F - 35.8 °F 85% 30.39 in 10.0 mi Calm Calm - N/A   Clear
9:35 PM 39.6 °F - 37.0 °F 91% 30.40 in 10.0 mi Calm Calm - N/A   Clear
9:55 PM 40.1 °F - 35.6 °F 84% 30.40 in 10.0 mi Calm Calm - N/A   Clear
10:15 PM 38.7 °F - 36.1 °F 91% 30.40 in 10.0 mi Calm Calm - N/A   Clear
10:35 PM 39.2 °F - 36.5 °F 90% 30.39 in 10.0 mi Calm Calm - N/A   Clear
10:55 PM 39.4 °F - 37.9 °F 95% 30.39 in 10.0 mi Calm Calm - N/A   Clear
11:15 PM 38.5 °F - 38.5 °F 100% 30.39 in 10.0 mi Calm Calm - N/A   Clear
11:35 PM 37.9 °F - 37.9 °F 100% 30.39 in 10.0 mi Calm Calm - N/A   Clear
11:55 PM 36.9 °F - 36.9 °F 100% 30.39 in 10.0 mi Calm Calm - N/A   Clear